Back to catalog

ARIANE 44P R/B

AliveGTO
NORAD 21223·ROCKET BODY·🇫🇷 France

Launched Apr 4, 1991 from Guiana Space Centre

Loading…

TLE

AgingSource: Space-Track

Epoch: Sep 14, 2026, 06:31 UTC

1 21223U 91026B   26257.27215598  .00000215  00000-0  83004-3 0  9995
2 21223   3.3525 182.9034 7173808  81.4348 347.0052  2.32344488274854

Track ARIANE 44P R/B in real time with AllMySat

Download on the App Store